Brownsville, TX

9:46 PM CDT on May 27, 2017 (GMT -0500)
Brownsville-South Padre I International

Weather History for KBRO - November, 2011

Change the Weather History Date:

Friday, November 4, 2011

  Actual Average Record
Temperature  
Mean Temperature 63 °F 72 °F  
Max Temperature 75 °F 82 °F 97 °F (1988)
Min Temperature 50 °F 63 °F 42 °F (1936)
Degree Days  
Heating Degree Days 2 1  
Month to date heating degree days 3 4  
Since 1 July heating degree days 4 8  
Cooling Degree Days 0 8  
Month to date cooling degree days 16 33  
Year to date cooling degree days 4352 3798  
Growing Degree Days 13 (Base 50)    
Moisture  
Dew Point 43 °F    
Average Humidity 55    
Maximum Humidity 72    
Minimum Humidity 37    
Precipitation  
Precipitation 0.00 in 0.08 in 2.29 in (1998)
Month to date precipitation 0.04 0.33  
Year to date precipitation 15.88 24.80  
Sea Level Pressure  
Sea Level Pressure 30.16 in    
Wind  
Wind Speed 7 mph (North)    
Max Wind Speed 14 mph    
Max Gust Speed 20 mph    
Visibility 10 miles    
Events      
T = Trace of Precipitation, MM = Missing Value Source: NWS Daily Summary

Daily Weather History Graph

Daily Weather History Graph

Search for Another Location

Airport or City:

Trip Planner

Search our weather history database for the weather conditions in past years. The results will help you decide how hot, cold, wet, or windy it might be!

Date:

Astronomy

Nov. 04, 2011 Rise Set
Actual Time 7:40 AM CDT 6:46 PM CDT
Civil Twilight 7:16 AM CDT 7:10 PM CDT
Nautical Twilight 6:48 AM CDT 7:37 PM CDT
Astronomical Twilight 6:21 AM CDT 8:04 PM CDT
Moon 3:09 PM CDT (11/4) 2:25 AM CDT (11/4)
Length of Visible Light 11h 53m
Length of Day
11h 06m
Waxing Gibbous, 69% of the Moon is Illuminated
Nov 4
Waxing Gibbous
Nov 10
Full
Nov 18
Last Quarter
Nov 25
New
Dec 2
First Quarter

Hourly Weather History & Observations

Time (CDT) Temp. Dew Point Humidity Pressure Visibility Wind Dir Wind Speed Gust Speed Precip Events Conditions
12:53 AM 55.9 °F 33.1 °F 42% 30.24 in 10.0 mi NW 6.9 mph - N/A   Clear
1:53 AM 54.0 °F 32.0 °F 43% 30.23 in 10.0 mi NW 5.8 mph - N/A   Clear
2:53 AM 53.1 °F 33.1 °F 47% 30.22 in 10.0 mi NNW 5.8 mph - N/A   Clear
3:53 AM 53.1 °F 33.1 °F 47% 30.21 in 10.0 mi NNW 5.8 mph - N/A   Clear
4:53 AM 54.0 °F 33.1 °F 45% 30.20 in 10.0 mi NNW 6.9 mph - N/A   Clear
5:53 AM 52.0 °F 34.0 °F 50% 30.19 in 10.0 mi NNW 5.8 mph - N/A   Clear
6:53 AM 51.1 °F 35.1 °F 54% 30.19 in 10.0 mi NNW 6.9 mph - N/A   Clear
7:53 AM 51.1 °F 36.0 °F 56% 30.20 in 10.0 mi NNW 5.8 mph - N/A   Clear
8:53 AM 55.9 °F 39.0 °F 53% 30.21 in 10.0 mi NNW 6.9 mph - N/A   Clear
9:53 AM 64.0 °F 41.0 °F 43% 30.23 in 10.0 mi NNW 6.9 mph - N/A   Clear
10:53 AM 70.0 °F 43.0 °F 38% 30.23 in 10.0 mi Variable 6.9 mph - N/A   Clear
11:53 AM 72.0 °F 46.9 °F 41% 30.22 in 10.0 mi ENE 12.7 mph 16.1 mph N/A   Clear
12:53 PM 73.0 °F 46.9 °F 39% 30.19 in 10.0 mi ENE 10.4 mph 16.1 mph N/A   Clear
1:53 PM 75.0 °F 48.0 °F 38% 30.15 in 10.0 mi NE 10.4 mph 18.4 mph N/A   Clear
2:53 PM 73.0 °F 46.9 °F 39% 30.12 in 10.0 mi NNE 9.2 mph - N/A   Clear
3:53 PM 73.0 °F 46.9 °F 39% 30.10 in 10.0 mi NE 9.2 mph - N/A   Clear
4:53 PM 72.0 °F 48.9 °F 44% 30.09 in 10.0 mi NNE 9.2 mph - N/A   Clear
5:53 PM 70.0 °F 48.9 °F 47% 30.09 in 10.0 mi NNE 10.4 mph - N/A   Clear
6:53 PM 66.0 °F 48.0 °F 52% 30.09 in 10.0 mi NE 6.9 mph - N/A   Clear
7:53 PM 64.0 °F 48.9 °F 58% 30.10 in 10.0 mi NE 4.6 mph - N/A   Clear
8:53 PM 63.0 °F 50.0 °F 63% 30.11 in 10.0 mi NE 3.5 mph - N/A   Clear
9:53 PM 62.1 °F 51.1 °F 67% 30.10 in 10.0 mi ENE 4.6 mph - N/A   Clear
10:53 PM 62.1 °F 51.1 °F 67% 30.10 in 10.0 mi Calm Calm - N/A   Clear
11:53 PM 61.0 °F 52.0 °F 72% 30.09 in 10.0 mi NE 3.5 mph - N/A   Clear